Location: Foulognes
(49.1413°N, 0.8183°W)
Time: 00:04:02
(UTC+00:00)

YAOGAN 1 - Pass Details

Date: 21 October 2019
Orbit: 619 x 621 km, 98.0° (Epoch: 21 November)

Event Time Altitude Azimuth Distance (km) Brightness Sun altitude
Rises 17:40:02 0° 142° (SE) 2,889 5.7 -6.9°
Reaches altitude 10° 17:42:20 10° 133° (SE) 1,987 4.8 -7.2°
Maximum altitude 17:46:17 36° 67° (ENE) 990 3.1 -7.9°
Drops below altitude 10° 17:50:16 10° 1° (N) 2,001 5.1 -8.5°
Sets 17:52:35 0° 353° (N) 2,912 6.0 -8.9°
